Погода в Рятамаке

Россия / Республика Башкортостан     54°04′45″N   53°31′51″E
темп.,
°C
ветер,
м/с
пор.,
м/с
влажн.,
%
обл.,
%
осадки,
мм/ч
давл.,
гПа
погр.,
м
13 апреля, вт
вт1323:00+6всв229556 0.1 103825
02:00+5всв229781 0.0 103719
05:00+5в119970 0.0 103810
08:00+3всв11100100 0.1 103818
11:00+5юв15100100 0.1 1038205
14:00+9ююв349598 0.0 1037277
17:00+14ююв357150 0.0 1036605
20:00+11юв347544 0.0 103548
14 апреля, ср
ср1423:00+8юв37906 0.0 1035107
02:00+6ююв249420 0.0 103559
05:00+5юв229349 0.0 103512
08:00+5юв239370 0.0 103488
11:00+10юв456524 0.0 1033373
14:00+14юв46475 0.0 1030723
17:00+16юв46491 0.0 1028963
20:00+13юв34650 0.0 102750
15 апреля, чт
чт1523:00+10ююв22690 0.0 102821
02:00+7юв22731 0.0 102723
05:00+6юв22780 0.0 102611
08:00+6вюв22780 0.0 102618
11:00+12ююв46600 0.0 1024373
14:00+17ю46480 0.0 1022840
17:00+18ю34420 0.0 10211281
20:00+15ююв22520 0.0 102011
16 апреля, пт
пт1623:00
02:00+10ююв116298 0.0 101910
05:00+8ююв116386 0.0 101810
08:00+9ю116278 0.0 101810
11:00+14ююз114814 0.0 1017234
14:00+17з11393 0.0 1016935
17:00+18сз133811 0.0 10152041
20:00+13ссв61069100 0.0 1016408
17 апреля, сб
сб1723:00+10ссв61079100 0.1 1016518
02:00+6ссв5108833 0.1 1019426
05:00+5ссв510885 0.1 1019377
08:00+4ссв5108946 0.0 1020430
11:00+7ссв68558 0.0 1020816
14:00+10ссв78425 0.0 10201382
17:00+10с78364 0.0 10201680
20:00+8с484623 0.0 1020512